Location: Avenches
(46.8809°N, 7.0410°E)
Time: 06:23:38
(UTC+00:00)

Landsat 7 - Pass Details

Date: 30 March 2020
Orbit: 701 x 703 km, 98.1° (Epoch: 29 May)

Event Time Altitude Azimuth Distance (km) Brightness Sun altitude
Exits shadow 20:50:31 73° 322° (NW) 738 3.9 -27.3°
Drops below altitude 10° 20:54:53 10° 345° (NNW) 2,181 7.1 -27.8°
Sets 20:57:09 0° 346° (NNW) 3,104 8.0 -28.1°
